Location: B�rgermoos
(47.6500°N, 9.0667°E)
Time: 16:25:06
(UTC+00:00)

Tiros 1 - Pass Details

Date: 05 August 2021
Orbit: 630 x 663 km, 48.4° (Epoch: 20 September)

Event Time Altitude Azimuth Distance (km) Brightness Sun altitude
Rises 18:04:50 0° 265° (W) 2,986 12.0 6.6°
Reaches altitude 10° 18:07:11 10° 266° (W) 2,071 11.3 6.2°
Maximum altitude 18:11:59 83° 355° (N) 665 7.4 5.4°
Drops below altitude 10° 18:16:44 10° 83° (E) 2,053 9.2 4.7°
Sets 18:19:04 0° 85° (E) 2,958 10.0 4.3°
